Time,TemperatureF,DewpointF,PressureIn,WindDirection,WindDirectionDegrees,WindSpeedMPH,WindSpeedGustMPH,Humidity,HourlyPrecipIn,Conditions,Clouds,dailyrainin,SolarRadiationWatts/m^2,SoftwareType,DateUTC
2013-05-11 00:02:00,46.0,31.0,-100.00,NNW,344,5.0,16.0,55,0.00,,,0.00,2.000000,,2013-05-11 06:02:00,
2013-05-11 00:12:00,46.0,31.0,-100.00,NNW,344,5.0,16.0,55,0.00,,,0.00,2.000000,,2013-05-11 06:12:00,
2013-05-11 00:21:00,46.0,31.0,-100.00,NNW,344,5.0,16.0,55,0.00,,,0.00,2.000000,,2013-05-11 06:21:00,
2013-05-11 00:32:00,46.0,31.0,-100.00,NNW,344,5.0,16.0,55,0.00,,,0.00,2.000000,,2013-05-11 06:32:00,
2013-05-11 01:02:00,46.0,24.0,-100.00,North,358,3.0,12.0,42,0.00,,,0.00,11.000000,,2013-05-11 07:02:00,
2013-05-11 01:12:00,46.0,24.0,-100.00,North,358,3.0,12.0,42,0.00,,,0.00,11.000000,,2013-05-11 07:12:00,
2013-05-11 01:21:00,46.0,24.0,-100.00,North,358,3.0,12.0,42,0.00,,,0.00,11.000000,,2013-05-11 07:21:00,
2013-05-11 01:32:00,46.0,24.0,-100.00,North,358,3.0,12.0,42,0.00,,,0.00,11.000000,,2013-05-11 07:32:00,
2013-05-11 02:01:00,43.0,21.0,-100.00,North,353,5.0,16.0,41,0.00,,,0.00,10.000000,,2013-05-11 08:01:00,
2013-05-11 02:12:00,43.0,21.0,-100.00,North,353,5.0,16.0,41,0.00,,,0.00,10.000000,,2013-05-11 08:12:00,
2013-05-11 02:21:00,43.0,21.0,-100.00,North,353,5.0,16.0,41,0.00,,,0.00,10.000000,,2013-05-11 08:21:00,
2013-05-11 02:32:00,43.0,21.0,-100.00,North,353,5.0,16.0,41,0.00,,,0.00,10.000000,,2013-05-11 08:32:00,
2013-05-11 03:01:00,43.0,19.0,-100.00,NNW,345,6.0,14.0,37,0.00,,,0.00,11.000000,,2013-05-11 09:01:00,
2013-05-11 03:11:00,43.0,19.0,-100.00,NNW,345,6.0,14.0,37,0.00,,,0.00,11.000000,,2013-05-11 09:11:00,
2013-05-11 03:21:00,43.0,19.0,-100.00,NNW,345,6.0,14.0,37,0.00,,,0.00,11.000000,,2013-05-11 09:21:00,
2013-05-11 03:32:00,43.0,19.0,-100.00,NNW,345,6.0,14.0,37,0.00,,,0.00,11.000000,,2013-05-11 09:32:00,
2013-05-11 04:03:00,43.0,20.0,-100.00,SSE,153,2.0,14.0,40,0.00,,,-99.99,20.000000,,2013-05-11 10:03:00,
2013-05-11 04:12:00,43.0,20.0,-100.00,SSE,153,2.0,14.0,40,0.00,,,-99.99,20.000000,,2013-05-11 10:12:00,
2013-05-11 04:22:00,43.0,20.0,-100.00,SSE,153,2.0,14.0,40,0.00,,,-99.99,20.000000,,2013-05-11 10:22:00,
2013-05-11 04:33:00,43.0,20.0,-100.00,SSE,153,2.0,14.0,40,0.00,,,-99.99,20.000000,,2013-05-11 10:33:00,
2013-05-11 05:02:00,41.0,19.0,-100.00,South,179,2.0,6.0,41,0.00,,,0.00,10.000000,,2013-05-11 11:02:00,
2013-05-11 05:12:00,41.0,19.0,-100.00,South,179,2.0,6.0,41,0.00,,,0.00,10.000000,,2013-05-11 11:12:00,
2013-05-11 05:21:00,41.0,19.0,-100.00,South,179,2.0,6.0,41,0.00,,,0.00,10.000000,,2013-05-11 11:21:00,
2013-05-11 05:32:00,41.0,19.0,-100.00,South,179,2.0,6.0,41,0.00,,,0.00,10.000000,,2013-05-11 11:32:00,
2013-05-11 06:01:00,42.0,21.0,-100.00,NE,37,2.0,6.0,42,0.00,,,-99.99,11.000000,,2013-05-11 12:01:00,
2013-05-11 06:11:00,42.0,21.0,-100.00,NE,37,2.0,6.0,42,0.00,,,-99.99,11.000000,,2013-05-11 12:11:00,
2013-05-11 06:22:00,42.0,21.0,-100.00,NE,37,2.0,6.0,42,0.00,,,-99.99,11.000000,,2013-05-11 12:22:00,
2013-05-11 06:32:00,42.0,21.0,-100.00,NE,37,2.0,6.0,42,0.00,,,-99.99,11.000000,,2013-05-11 12:32:00,
2013-05-11 07:02:00,41.0,23.0,-100.00,WSW,237,3.0,5.0,48,0.00,,,-99.99,30.000000,,2013-05-11 13:02:00,
2013-05-11 07:11:00,41.0,23.0,-100.00,WSW,237,3.0,5.0,48,0.00,,,-99.99,30.000000,,2013-05-11 13:11:00,
2013-05-11 07:21:00,41.0,23.0,-100.00,WSW,237,3.0,5.0,48,0.00,,,-99.99,30.000000,,2013-05-11 13:21:00,
2013-05-11 07:32:00,41.0,23.0,-100.00,WSW,237,3.0,5.0,48,0.00,,,-99.99,30.000000,,2013-05-11 13:32:00,
2013-05-11 08:02:00,42.0,20.0,-100.00,West,271,3.0,8.0,41,0.00,,,0.00,96.000000,,2013-05-11 14:02:00,
2013-05-11 08:11:00,42.0,20.0,-100.00,West,271,3.0,8.0,41,0.00,,,0.00,96.000000,,2013-05-11 14:11:00,
2013-05-11 08:21:00,42.0,20.0,-100.00,West,271,3.0,8.0,41,0.00,,,0.00,96.000000,,2013-05-11 14:21:00,
2013-05-11 08:32:00,42.0,20.0,-100.00,West,271,3.0,8.0,41,0.00,,,0.00,96.000000,,2013-05-11 14:32:00,
2013-05-11 09:01:00,46.0,28.0,-100.00,SE,146,4.0,6.0,49,0.00,,,0.00,172.000000,,2013-05-11 15:01:00,
2013-05-11 09:11:00,46.0,28.0,-100.00,SE,146,4.0,6.0,49,0.00,,,0.00,172.000000,,2013-05-11 15:11:00,
2013-05-11 09:21:00,46.0,28.0,-100.00,SE,146,4.0,6.0,49,0.00,,,0.00,172.000000,,2013-05-11 15:21:00,
2013-05-11 09:32:00,46.0,28.0,-100.00,SE,146,4.0,6.0,49,0.00,,,0.00,172.000000,,2013-05-11 15:32:00,
2013-05-11 10:02:00,49.0,27.0,-100.00,ESE,108,7.0,14.0,43,0.00,,,0.00,463.000000,,2013-05-11 16:02:00,
2013-05-11 10:12:00,49.0,27.0,-100.00,ESE,108,7.0,14.0,43,0.00,,,0.00,463.000000,,2013-05-11 16:12:00,
2013-05-11 10:23:00,49.0,27.0,-100.00,ESE,108,7.0,14.0,43,0.00,,,0.00,463.000000,,2013-05-11 16:23:00,
2013-05-11 10:33:00,49.0,27.0,-100.00,ESE,108,7.0,14.0,43,0.00,,,0.00,463.000000,,2013-05-11 16:33:00,
2013-05-11 11:02:00,48.0,24.0,-100.00,SE,125,6.0,15.0,38,0.00,,,0.00,490.000000,,2013-05-11 17:02:00,
2013-05-11 11:12:00,48.0,24.0,-100.00,SE,125,6.0,15.0,38,0.00,,,0.00,490.000000,,2013-05-11 17:12:00,
2013-05-11 11:22:00,48.0,24.0,-100.00,SE,125,6.0,15.0,38,0.00,,,0.00,490.000000,,2013-05-11 17:22:00,
2013-05-11 11:32:00,48.0,24.0,-100.00,SE,125,6.0,15.0,38,0.00,,,0.00,490.000000,,2013-05-11 17:32:00,
2013-05-11 12:01:00,51.0,26.0,-100.00,SE,129,9.0,16.0,38,0.00,,,0.00,344.000000,,2013-05-11 18:01:00,
2013-05-11 12:12:00,51.0,26.0,-100.00,SE,129,9.0,16.0,38,0.00,,,0.00,344.000000,,2013-05-11 18:12:00,
2013-05-11 12:21:00,51.0,26.0,-100.00,SE,129,9.0,16.0,38,0.00,,,0.00,344.000000,,2013-05-11 18:21:00,
2013-05-11 12:32:00,51.0,26.0,-100.00,SE,129,9.0,16.0,38,0.00,,,0.00,344.000000,,2013-05-11 18:32:00,
2013-05-11 13:02:00,51.0,26.0,-100.00,SE,128,8.0,20.0,37,0.00,,,0.00,154.000000,,2013-05-11 19:02:00,
2013-05-11 13:11:00,51.0,26.0,-100.00,SE,128,8.0,20.0,37,0.00,,,0.00,154.000000,,2013-05-11 19:11:00,
2013-05-11 13:21:00,51.0,26.0,-100.00,SE,128,8.0,20.0,37,0.00,,,0.00,154.000000,,2013-05-11 19:21:00,
2013-05-11 13:32:00,51.0,26.0,-100.00,SE,128,8.0,20.0,37,0.00,,,0.00,154.000000,,2013-05-11 19:32:00,
2013-05-11 14:02:00,52.0,26.0,-100.00,SE,142,8.0,18.0,36,0.00,,,0.00,21.000000,,2013-05-11 20:02:00,
2013-05-11 14:12:00,52.0,26.0,-100.00,SE,142,8.0,18.0,36,0.00,,,0.00,21.000000,,2013-05-11 20:12:00,
2013-05-11 14:22:00,52.0,26.0,-100.00,SE,142,8.0,18.0,36,0.00,,,0.00,21.000000,,2013-05-11 20:22:00,
2013-05-11 14:32:00,52.0,26.0,-100.00,SE,142,8.0,18.0,36,0.00,,,0.00,21.000000,,2013-05-11 20:32:00,
2013-05-11 15:02:00,56.0,27.0,-100.00,ESE,116,7.0,20.0,33,0.00,,,0.00,12.000000,,2013-05-11 21:02:00,
2013-05-11 15:11:00,56.0,27.0,-100.00,ESE,116,7.0,20.0,33,0.00,,,0.00,12.000000,,2013-05-11 21:11:00,
2013-05-11 15:21:00,56.0,27.0,-100.00,ESE,116,7.0,20.0,33,0.00,,,0.00,12.000000,,2013-05-11 21:21:00,
2013-05-11 15:33:00,56.0,27.0,-100.00,ESE,116,7.0,20.0,33,0.00,,,0.00,12.000000,,2013-05-11 21:33:00,
2013-05-11 16:02:00,55.0,28.0,-100.00,SE,135,9.0,19.0,35,0.00,,,0.00,6.000000,,2013-05-11 22:02:00,
2013-05-11 16:13:00,55.0,28.0,-100.00,SE,135,9.0,19.0,35,0.00,,,0.00,6.000000,,2013-05-11 22:13:00,
2013-05-11 16:23:00,55.0,28.0,-100.00,SE,135,9.0,19.0,35,0.00,,,0.00,6.000000,,2013-05-11 22:23:00,
2013-05-11 16:33:00,55.0,28.0,-100.00,SE,135,9.0,19.0,35,0.00,,,0.00,6.000000,,2013-05-11 22:33:00,
2013-05-11 17:02:00,57.0,27.0,-100.00,ESE,117,7.0,19.0,32,0.00,,,0.00,0.000000,,2013-05-11 23:02:00,
2013-05-11 17:12:00,57.0,27.0,-100.00,ESE,117,7.0,19.0,32,0.00,,,0.00,0.000000,,2013-05-11 23:12:00,
2013-05-11 17:22:00,57.0,27.0,-100.00,ESE,117,7.0,19.0,32,0.00,,,0.00,0.000000,,2013-05-11 23:22:00,
2013-05-11 17:32:00,57.0,27.0,-100.00,ESE,117,7.0,19.0,32,0.00,,,0.00,0.000000,,2013-05-11 23:32:00,
2013-05-11 18:01:00,57.0,28.0,-100.00,ESE,119,5.0,18.0,33,0.00,,,0.00,2.000000,,2013-05-12 00:01:00,
2013-05-11 18:11:00,57.0,28.0,-100.00,ESE,119,5.0,18.0,33,0.00,,,0.00,2.000000,,2013-05-12 00:11:00,
2013-05-11 18:21:00,57.0,28.0,-100.00,ESE,119,5.0,18.0,33,0.00,,,0.00,2.000000,,2013-05-12 00:21:00,
2013-05-11 18:32:00,57.0,28.0,-100.00,ESE,119,5.0,18.0,33,0.00,,,0.00,2.000000,,2013-05-12 00:32:00,
2013-05-11 19:01:00,57.0,29.0,-100.00,SSW,195,6.0,16.0,34,0.00,,,0.00,0.000000,,2013-05-12 01:01:00,
2013-05-11 19:11:00,57.0,29.0,-100.00,SSW,195,6.0,16.0,34,0.00,,,0.00,0.000000,,2013-05-12 01:11:00,
2013-05-11 19:21:00,57.0,29.0,-100.00,SSW,195,6.0,16.0,34,0.00,,,0.00,0.000000,,2013-05-12 01:21:00,
2013-05-11 19:32:00,57.0,29.0,-100.00,SSW,195,6.0,16.0,34,0.00,,,0.00,0.000000,,2013-05-12 01:32:00,
2013-05-11 20:01:00,51.0,27.0,-100.00,East,89,3.0,12.0,39,0.00,,,0.00,0.000000,,2013-05-12 02:01:00,
2013-05-11 20:11:00,51.0,27.0,-100.00,East,89,3.0,12.0,39,0.00,,,0.00,0.000000,,2013-05-12 02:11:00,
2013-05-11 20:22:00,51.0,27.0,-100.00,East,89,3.0,12.0,39,0.00,,,0.00,0.000000,,2013-05-12 02:22:00,
2013-05-11 20:32:00,51.0,27.0,-100.00,East,89,3.0,12.0,39,0.00,,,0.00,0.000000,,2013-05-12 02:32:00,
2013-05-11 21:01:00,49.0,28.0,-100.00,ESE,102,1.0,8.0,44,0.00,,,0.00,0.000000,,2013-05-12 03:01:00,
2013-05-11 21:11:00,49.0,28.0,-100.00,ESE,102,1.0,8.0,44,0.00,,,0.00,0.000000,,2013-05-12 03:11:00,
2013-05-11 21:22:00,49.0,28.0,-100.00,ESE,102,1.0,8.0,44,0.00,,,0.00,0.000000,,2013-05-12 03:22:00,
2013-05-11 21:33:00,49.0,28.0,-100.00,ESE,102,1.0,8.0,44,0.00,,,0.00,0.000000,,2013-05-12 03:33:00,
2013-05-11 22:03:00,-999.0,-99.9,-100.00,East,88,1.0,4.0,43,0.00,,,0.00,0.000000,,2013-05-12 04:03:00,
2013-05-11 22:12:00,46.0,25.0,-100.00,East,88,1.0,4.0,43,0.00,,,0.00,0.000000,,2013-05-12 04:12:00,
2013-05-11 22:22:00,46.0,25.0,-100.00,East,88,1.0,4.0,43,0.00,,,0.00,0.000000,,2013-05-12 04:22:00,
2013-05-11 22:33:00,46.0,25.0,-100.00,East,88,1.0,4.0,43,0.00,,,0.00,0.000000,,2013-05-12 04:33:00,
2013-05-11 23:02:00,45.0,24.0,-100.00,South,169,1.0,5.0,43,0.00,,,0.00,0.000000,,2013-05-12 05:02:00,
2013-05-11 23:12:00,45.0,24.0,-100.00,South,169,1.0,5.0,43,0.00,,,0.00,0.000000,,2013-05-12 05:12:00,
2013-05-11 23:22:00,45.0,24.0,-100.00,South,169,1.0,5.0,43,0.00,,,0.00,0.000000,,2013-05-12 05:22:00,
2013-05-11 23:32:00,45.0,24.0,-100.00,South,169,1.0,5.0,43,0.00,,,0.00,0.000000,,2013-05-12 05:32:00,